Theta_e
332 336 339 340 348 349 338 338 338 339 339 339 337 341 341 343 345 345 331 331 342 340 338 333 327 332 334 334 335 335 335 336 337 337 335 332 330 331 332 332 333 334 332 330 328 325 321 319 318
339 343 341 342 352 348 339 337 338 341 339 335 340 339 339 337 339 333 331 332 339 342 339 339 326 328 331 333 334 335 335 337 338 338 335 332 329 327 328 329 331 333 331 328 325 320 319 320 320
334 342 342 347 352 342 339 338 337 336 335 333 340 341 339 338 334 332 331 333 336 339 339 339 325 327 332 336 338 337 336 336 336 337 337 334 330 328 328 328 328 330 330 328 327 324 320 320 320
340 339 339 345 344 341 338 336 338 335 334 336 338 341 338 336 335 331 331 333 334 337 342 344 325 326 332 335 337 337 336 336 336 337 338 338 338 335 330 329 329 329 330 330 328 327 324 320 320
339 336 342 341 341 342 340 337 338 336 336 336 338 340 338 335 335 333 332 332 334 338 349 342 331 327 330 335 337 336 337 338 336 337 339 342 342 339 336 334 331 331 332 332 329 327 325 321 320
333 335 340 342 340 342 339 337 337 336 336 336 338 341 340 336 336 334 332 331 332 338 347 337 326 325 325 327 331 333 336 336 336 336 335 336 338 337 337 334 331 332 332 334 331 329 327 322 320
331 333 338 339 339 343 339 337 338 335 336 337 339 343 341 338 337 334 332 331 332 335 343 342 337 323 324 324 326 332 333 336 336 336 335 333 335 335 336 340 340 335 329 330 332 332 329 324 321
332 335 337 337 338 338 339 339 343 338 338 338 340 343 342 338 337 335 334 333 337 338 339 343 345 344 342 335 333 335 338 336 336 336 337 337 337 340 337 331 332 332 334 328 329 332 331 326 325
332 335 335 337 337 339 337 341 337 335 335 337 337 340 339 338 339 338 339 336 336 338 341 342 346 347 346 346 342 341 340 337 336 338 339 328 334 334 337 333 330 327 332 332 332 331 331 330 329
332 333 331 334 338 338 339 339 338 336 336 335 336 339 340 341 344 341 335 331 334 333 345 345 346 346 345 346 345 344 344 341 337 333 331 329 330 333 332 333 337 339 337 335 333 331 332 329 328
330 330 332 332 335 337 336 339 339 340 340 336 337 341 341 345 343 336 334 328 343 339 343 342 347 347 347 345 342 342 342 342 339 334 332 332 339 335 330 339 341 341 341 336 335 335 331 332 330
329 330 330 332 338 339 340 339 339 338 342 338 338 341 346 341 337 342 333 333 343 343 342 345 348 348 346 345 343 340 341 341 335 333 336 334 340 343 342 342 341 339 339 336 332 328 323 332 331
331 335 333 336 336 334 334 337 342 339 341 340 341 345 348 345 340 338 344 346 344 343 346 344 347 347 345 344 344 343 342 341 341 340 339 340 339 343 342 339 339 341 339 336 332 332 333 333 331
334 334 334 338 338 337 339 341 341 340 341 345 346 347 347 344 343 346 347 345 344 345 346 345 344 344 344 343 340 342 341 340 339 339 339 333 338 340 338 337 334 335 338 335 333 335 334 334 332
334 334 334 336 339 338 337 341 343 342 343 346 345 345 345 345 345 346 346 344 344 343 343 342 343 343 342 342 340 340 339 337 335 337 332 337 336 336 335 334 335 334 333 332 329 328 332 333 330
334 335 337 337 337 336 336 345 342 342 343 343 343 346 346 347 346 345 344 343 344 342 343 343 342 341 341 341 338 338 339 338 337 335 334 333 333 331 332 331 332 332 331 332 333 332 329 328 327
335 338 339 336 339 338 340 344 340 341 344 345 347 347 349 348 346 344 341 341 341 341 340 337 335 332 330 337 333 332 334 335 334 333 330 328 327 327 328 328 328 328 328 326 326 325 326 325 326
336 335 338 332 339 338 340 341 339 341 342 345 346 346 347 345 343 341 340 340 339 336 334 333 332 327 325 328 326 325 327 331 329 330 328 326 325 323 321 321 322 321 323 325 324 325 325 324 324
333 335 335 334 332 338 339 340 339 339 342 345 343 344 343 343 341 339 339 337 335 334 333 330 330 327 326 327 326 326 326 324 326 326 321 321 319 317 317 316 317 318 319 318 320 321 321 320 320
332 335 334 333 333 338 339 342 338 337 338 342 344 345 344 343 340 337 336 334 334 331 329 329 327 327 325 325 324 323 323 322 320 322 320 319 318 317 316 316 316 315 315 317 317 317 318 317 318
331 333 333 332 338 339 340 344 341 341 342 340 340 341 340 338 338 336 333 330 327 328 328 327 326 325 325 322 322 322 320 319 319 317 317 317 317 317 316 316 315 314 316 316 313 314 315 318 316
331 331 331 339 338 347 339 347 339 340 335 336 341 337 336 336 334 332 330 328 326 325 326 326 325 324 323 322 321 319 318 319 318 318 317 317 317 317 317 315 314 315 314 316 313 314 315 317 318
330 332 337 339 342 342 342 340 344 341 341 342 339 336 335 333 331 329 327 326 325 325 324 325 324 323 322 321 319 318 318 318 318 318 318 317 316 316 315 315 315 315 316 315 315 316 314 315 316
334 337 337 339 338 351 344 342 351 344 336 340 338 335 334 332 330 329 327 324 326 326 324 324 325 321 319 320 318 318 316 319 317 316 317 317 316 314 316 316 316 316 315 316 317 316 316 316 316
332 333 335 342 345 346 341 346 346 341 339 341 338 336 333 330 329 328 327 325 326 326 324 323 323 321 318 318 318 315 314 315 316 316 316 316 316 316 316 316 316 316 316 314 314 315 314 315 315
330 334 340 343 332 338 340 346 349 338 337 337 336 335 332 330 329 327 327 327 326 325 325 323 323 321 318 318 316 315 315 316 316 316 316 316 316 316 316 317 316 314 314 314 313 315 314 314 315
333 333 332 334 338 341 345 345 341 339 338 337 336 334 333 331 329 327 326 326 326 324 324 321 322 320 317 318 316 316 316 316 316 316 316 316 316 317 317 314 314 314 312 314 313 314 314 314 314
335 335 335 333 335 338 345 347 345 341 339 338 337 335 334 331 328 326 326 326 325 323 323 321 320 318 316 317 316 316 316 316 317 316 316 317 316 317 315 313 312 312 313 314 314 313 314 314 313
329 333 333 333 337 339 338 340 341 342 341 338 336 334 333 330 328 326 326 326 324 322 321 321 319 317 316 317 316 316 316 317 316 317 317 316 316 315 313 314 313 311 313 313 314 313 313 313 312
330 330 335 335 337 337 338 349 338 339 338 337 335 334 332 330 328 326 325 325 324 322 321 320 318 316 316 317 316 315 316 315 318 318 317 316 315 315 313 314 313 312 311 312 312 312 312 311 311
Wind_Speed
4 5 9 10 2 5 17 18 17 17 16 14 10 15 19 18 10 6 12 14 26 21 18 15 12 11 10 8 6 5 4 3 3 3 2 2 2 2 2 3 3 4 5 6 7 8 9 10 12
6 12 4 6 2 5 13 18 17 15 14 10 9 15 18 18 17 16 13 15 24 19 17 15 13 11 10 9 7 6 4 3 2 2 3 3 3 2 2 1 1 2 2 3 4 5 7 8 10
6 9 4 5 4 11 13 18 18 15 15 20 18 19 14 15 18 14 18 17 20 20 17 15 13 12 11 8 6 5 4 4 3 3 4 4 4 3 3 3 2 2 2 2 3 4 4 6 9
9 5 3 4 10 11 16 14 22 19 18 21 18 13 15 16 19 18 18 18 15 19 19 17 12 12 10 9 7 6 5 4 4 4 4 5 6 6 6 5 5 5 5 5 5 5 5 5 7
24 7 4 10 10 20 21 21 21 19 19 18 18 17 16 17 18 17 15 14 13 20 17 16 11 10 9 8 8 7 6 6 5 5 5 6 8 8 8 8 8 8 8 8 7 7 7 7 7
10 3 3 10 2 22 21 21 13 9 20 19 18 17 14 16 15 15 13 10 9 15 19 11 11 9 9 10 11 9 8 7 6 6 7 5 9 10 10 11 11 13 12 12 11 9 8 8 8
16 4 15 15 8 21 20 23 7 14 19 15 18 16 11 15 15 14 12 9 9 11 13 8 6 11 11 13 12 8 7 8 6 7 7 3 8 11 10 10 12 17 19 16 15 12 10 10 9
7 8 12 8 11 11 25 14 27 27 25 18 15 11 13 16 16 15 13 9 15 3 11 14 13 13 11 12 9 3 13 9 4 2 4 3 5 9 11 8 13 18 23 23 18 16 14 12 11
8 10 6 9 12 3 6 27 20 25 21 10 13 16 17 18 14 16 44 56 43 21 27 11 11 3 4 9 12 5 8 3 2 3 5 10 5 12 14 12 15 19 29 26 20 19 17 16 15
5 3 7 12 16 10 28 16 8 7 9 4 9 17 18 17 38 38 33 24 11 21 15 14 14 12 13 2 3 7 6 3 8 10 13 11 11 16 15 11 15 25 23 14 26 21 17 19 19
4 8 10 11 21 27 16 23 10 21 13 14 16 17 15 26 41 32 2 7 18 28 19 18 17 13 13 11 9 6 9 5 11 13 12 11 14 17 13 16 18 19 28 13 18 11 18 23 25
12 7 7 14 24 27 25 16 16 5 19 25 21 14 25 17 22 19 13 20 4 19 17 15 14 15 14 13 11 7 7 6 7 10 9 12 12 17 15 14 15 12 12 19 15 10 19 16 16
7 24 3 21 24 27 20 9 24 10 24 20 18 23 24 13 20 10 12 19 22 19 19 18 18 16 15 13 12 10 9 10 9 13 17 21 8 15 19 17 15 16 10 15 11 14 15 23 25
14 17 18 20 19 18 15 9 12 15 18 23 18 17 19 17 21 19 21 21 21 20 21 18 15 15 15 15 16 16 15 12 13 20 13 25 22 15 17 15 13 22 15 17 12 14 12 15 15
16 18 19 14 20 12 17 10 13 16 17 19 16 15 16 17 20 17 20 18 19 20 19 19 17 20 19 16 17 19 22 26 27 21 15 11 21 18 18 16 12 14 20 20 13 13 14 17 17
10 8 6 9 13 2 1 5 3 16 18 18 10 15 14 17 20 25 16 17 19 19 19 21 21 22 21 19 21 24 20 26 14 16 13 18 19 24 22 21 17 16 17 17 15 9 8 14 10
8 9 16 5 10 13 11 12 13 19 16 14 15 12 15 16 18 16 15 23 20 23 26 25 26 24 26 22 24 26 24 21 17 16 22 23 22 22 21 21 19 18 15 17 17 17 14 18 17
13 9 23 7 15 11 13 13 9 13 16 18 20 2 17 15 11 12 22 21 22 22 23 23 22 24 26 24 25 26 26 19 19 17 18 19 19 20 21 24 26 24 21 18 19 17 17 16 18
13 11 12 17 3 9 13 11 14 18 8 19 13 13 11 11 20 16 20 17 16 17 20 22 22 25 28 23 25 24 26 24 21 17 22 21 21 24 22 24 24 26 24 23 16 16 18 20 21
11 12 4 11 3 8 4 26 17 23 25 14 14 17 13 12 14 17 15 14 14 16 20 21 22 22 26 26 25 25 25 23 25 20 23 20 19 17 17 18 20 21 22 21 20 18 16 16 18
6 10 4 10 14 21 22 24 13 11 13 30 7 11 17 15 13 11 13 14 18 19 19 18 19 21 23 24 24 24 23 20 21 22 22 20 15 13 16 18 19 19 19 18 20 18 16 16 17
3 11 13 22 10 5 7 4 8 9 10 30 8 12 13 14 11 11 13 15 17 16 18 17 17 19 20 22 22 24 21 18 20 21 20 21 13 17 20 20 17 17 15 13 18 16 16 14 15
13 11 18 22 15 8 11 10 10 18 12 12 11 11 11 10 10 12 16 16 17 17 16 15 15 20 22 21 21 21 21 19 18 22 21 25 22 21 21 22 18 16 16 18 17 15 17 13 14
12 9 3 5 4 2 18 9 4 7 10 10 11 10 8 11 12 15 17 17 16 15 14 13 17 21 20 19 19 20 23 21 23 23 22 24 23 25 24 21 20 19 22 20 18 18 15 17 15
9 14 4 2 5 3 7 6 6 14 17 10 13 11 9 13 13 11 15 15 15 12 12 14 18 16 20 17 18 20 20 21 21 20 19 20 19 20 23 22 22 22 22 23 22 20 19 18 17
13 7 6 12 12 4 17 7 6 13 13 12 12 10 12 11 10 10 16 14 12 12 12 15 14 13 15 15 17 18 18 17 16 17 17 17 18 20 22 23 21 25 22 22 22 18 20 19 18
8 10 9 8 16 5 7 4 5 3 10 12 11 11 10 7 8 10 17 14 12 14 16 15 11 11 16 14 16 16 14 15 16 17 17 16 18 19 20 22 24 20 22 22 22 21 19 20 23
7 5 7 6 6 11 8 7 5 10 9 10 8 10 9 2 11 11 15 13 14 13 15 16 16 16 17 11 13 12 13 14 14 17 18 18 19 19 21 21 23 22 22 22 22 22 22 20 23
7 4 6 6 5 6 7 8 11 10 12 6 11 8 8 9 10 11 15 14 13 13 14 15 15 16 16 10 12 12 14 14 14 13 16 19 19 21 22 19 20 20 21 22 23 21 22 23 23
4 6 7 5 11 9 7 1 10 10 10 7 9 10 11 4 8 12 14 13 13 11 11 13 15 15 14 11 12 15 12 16 14 12 14 17 18 18 23 18 17 17 20 22 23 22 23 21 22
Wind_Direction
286 271 262 355 206 298 77 75 72 67 67 68 72 63 66 52 132 162 148 118 114 122 145 145 145 144 146 147 149 151 148 137 133 127 123 110 94 73 70 75 68 60 63 59 54 49 52 50 41
278 278 282 73 35 271 84 86 62 102 115 102 130 90 76 75 87 118 116 130 117 130 140 159 155 155 159 162 164 168 164 171 179 184 193 190 189 176 160 144 56 35 37 44 49 52 44 36 26
283 255 256 189 194 72 90 93 95 74 97 90 69 53 94 88 106 111 134 138 121 138 154 172 163 164 165 168 172 177 186 196 207 234 245 241 234 233 230 222 226 237 281 313 331 354 10 12 14
258 171 334 226 160 81 87 80 107 106 74 99 105 83 73 72 110 125 142 142 154 147 156 178 172 170 169 172 181 189 202 212 223 238 253 262 264 259 250 251 257 263 273 283 294 309 319 333 355
249 257 83 254 49 84 66 46 21 96 93 98 97 100 99 100 113 130 143 146 151 138 145 161 175 175 177 183 194 202 209 219 225 233 245 273 276 271 274 272 269 263 263 266 276 288 293 303 323
283 138 285 120 46 91 94 69 83 121 113 107 101 104 107 123 125 135 146 142 135 121 130 145 174 192 204 212 210 213 219 224 235 244 246 263 283 287 282 281 273 268 263 266 271 271 276 283 302
265 196 247 117 57 116 126 139 68 82 75 85 114 114 140 127 125 132 131 126 132 120 137 138 186 203 227 225 221 224 237 240 239 262 271 281 304 303 297 287 284 280 265 255 257 264 263 269 286
317 83 53 107 120 59 139 81 72 43 359 338 125 132 125 124 131 128 121 95 42 81 134 152 187 216 220 214 184 158 281 248 247 286 285 311 333 301 288 288 289 274 261 260 244 250 254 252 266
278 101 194 152 117 86 326 84 59 71 328 353 341 102 115 134 136 124 59 34 18 6 328 79 49 64 332 194 180 259 216 244 40 299 268 319 323 291 279 333 300 235 259 246 249 243 243 243 257
241 268 102 79 131 126 54 67 72 113 176 307 335 102 120 96 59 39 54 36 103 255 300 37 44 20 4 135 34 155 179 225 239 256 270 294 294 258 269 252 251 263 251 231 247 239 238 236 242
321 37 34 63 88 82 126 79 252 132 154 195 216 129 132 99 90 84 340 168 145 232 33 33 43 41 30 10 357 8 340 322 271 275 274 246 280 271 252 263 268 288 223 207 207 217 257 242 247
285 78 342 61 90 82 51 356 256 140 167 186 211 117 67 78 96 123 182 193 94 57 39 44 51 43 25 8 9 341 347 280 280 259 266 264 291 291 284 268 289 297 223 199 221 216 223 239 235
341 16 349 89 85 101 133 212 227 56 118 167 90 90 104 97 105 97 130 47 53 41 40 39 46 35 23 18 4 337 314 316 290 279 264 257 293 299 303 303 296 260 284 248 259 228 218 228 230
53 84 343 86 95 82 71 24 53 79 93 84 80 78 83 73 74 63 54 45 41 36 32 35 39 31 15 13 350 326 315 302 334 10 341 12 324 339 331 330 332 306 307 324 341 271 327 230 245
35 42 353 11 112 155 241 62 73 73 89 84 79 84 85 84 72 70 66 58 44 43 35 24 24 22 10 3 344 335 335 16 357 16 324 348 2 352 354 358 327 309 310 326 321 320 307 332 335
56 72 163 266 118 146 68 124 311 113 107 99 104 84 82 67 57 80 70 64 56 44 36 37 29 17 3 352 349 342 17 37 52 51 36 27 16 20 9 10 7 2 344 337 351 348 262 306 287
221 126 267 217 125 147 128 119 258 119 117 126 110 119 104 86 63 79 68 59 47 46 38 32 24 11 5 3 5 357 357 24 23 30 30 24 22 19 17 3 357 356 349 347 345 343 332 322 318
218 146 210 102 172 94 109 117 114 129 141 117 90 65 74 71 83 72 66 60 52 46 40 33 32 15 11 16 11 360 357 356 5 30 23 29 15 9 10 356 359 360 351 346 341 337 334 325 312
51 64 41 342 68 132 115 99 66 46 232 105 112 109 109 98 85 79 72 63 56 50 49 40 34 29 16 18 16 3 355 3 17 33 29 23 16 8 15 3 355 360 354 348 354 359 350 339 334
12 89 132 244 315 103 118 43 25 0 336 75 115 127 116 110 88 72 66 71 72 70 60 48 37 33 26 14 18 4 359 5 12 16 15 17 17 16 18 13 3 351 351 4 9 8 357 336 339
355 323 339 299 99 60 51 9 71 278 333 336 35 62 85 78 86 93 83 73 59 81 67 53 46 32 32 24 17 11 8 11 14 6 11 356 17 20 31 21 8 359 357 0 0 355 349 328 327
350 17 343 30 64 54 16 239 217 91 95 263 94 76 94 108 112 91 79 58 67 56 68 56 51 40 29 27 25 18 6 10 22 3 1 358 20 39 32 16 9 355 353 348 349 340 335 331 325
357 3 65 88 92 123 238 241 140 175 191 278 112 113 108 110 87 70 54 62 55 45 40 59 53 49 35 24 32 27 11 7 14 4 9 9 17 19 19 8 3 3 353 345 341 329 323 327 321
341 76 280 52 176 158 246 206 323 198 176 231 123 99 90 99 78 77 59 52 51 45 26 45 60 43 26 31 30 35 11 14 25 11 10 359 1 3 358 357 359 357 351 349 348 339 328 323 324
320 307 311 226 224 280 282 170 150 198 192 177 116 109 77 62 62 54 61 33 47 33 35 17 63 38 27 30 48 30 22 11 14 5 2 357 354 355 355 354 352 359 360 351 350 349 349 347 339
298 336 356 335 320 66 42 35 353 79 89 94 88 94 69 54 63 48 66 40 21 14 49 32 52 39 27 42 46 32 20 9 5 354 352 350 353 352 357 2 7 359 3 0 359 0 356 351 344
342 335 338 292 298 107 130 324 121 295 133 119 107 97 71 47 83 57 68 51 21 19 66 35 53 48 34 70 48 35 16 7 356 357 3 4 3 2 6 6 3 6 2 1 2 359 356 356 356
282 338 341 337 328 342 176 137 189 205 151 116 141 119 94 20 68 63 69 62 31 22 53 40 23 36 26 61 46 32 16 2 1 6 6 10 7 14 9 10 3 3 4 0 6 4 3 5 3
322 335 8 324 328 324 347 74 107 157 141 132 101 95 109 72 47 57 68 65 42 28 21 41 23 22 24 69 53 31 14 359 3 8 14 12 12 14 7 4 12 8 5 7 9 13 10 18 15
358 13 30 359 348 1 346 316 11 107 112 106 97 87 65 69 46 58 59 59 52 38 24 39 32 18 22 99 59 36 7 2 2 10 15 11 12 9 10 10 12 11 10 10 16 16 18 26 24